sat.trackr.live / text

‹ back to catalog

SITRO-TD-4

NORAD 67265 · 2025-313T

PAYLOAD ACTIVE UNKNOWN

§ Identity

Operator
Country
CIS
Launch date
2025-12-28
Launch site
VOSTO
Launch vehicle
Mass (kg)
RCS (m²)

External: N2YO · Heavens-Above · Gunter

§ Orbital elements

Epoch: 2026-09-19T23:52:23.746656Z

Period
94.45 min
Inclination
97.3852°
Eccentricity
0.0014651
Mean motion
15.24688076 rev/d
Perigee alt
481.7 km
Apogee alt
501.8 km
Semi-major
6,869.9 km
B*
2.2324e-4
RAAN
336.3130°
Arg perigee
36.5722°
Mean anomaly
323.6513°
Rev number
4,039

§ Raw data

SITRO-TD-41 67265U 25313T   26262.99471929  .00005463  00000+0  22324-3 0  99912 67265  97.3852 336.3130 0014651  36.5722 323.6513 15.24688076 40399

JSON: /api/v1/satellites/67265 · /tle

For live sub-satellite position, see the globe view (requires WebGL).

§ Visibility from observer

Set your observer location to see the next 7 days of passes ≥ 10°. The values pass through the URL so the page stays shareable.

No JS? Fill the form by hand. The geolocation button needs JavaScript.